Overview Statistics Trail Chart Weather Telemetry Raw packets
 

This is the latest recevied weather packets stored in our database for station/object K1RFS. If no packets are shown the sender has not sent any weather packets the latest 10 day(s).

<< 79 80 81 82 83 84 85 >>
Time Temp. Humidity Pressure Rain* Wind** Luminosity Snow
1788119552 24.44° C 53% 1003.4 hPa 0 mm - 179 W/m² -
1788119251 26.11° C 50% 1003.4 hPa 0 mm - 136 W/m² -
1788118946 26.11° C 50% 1003.3 hPa 0 mm - 629 W/m² -
1788118646 26.11° C 51% 1003.3 hPa 0 mm - 662 W/m² -
1788118340 26.11° C 50% 1003.3 hPa 0 mm - 687 W/m² -
1788118036 25.56° C 51% 1003.3 hPa 0 mm - 649 W/m² -
1788117731 25.56° C 51% 1003.4 hPa 0 mm - 627 W/m² -
1788117427 25.56° C 51% 1003.4 hPa 0 mm - 624 W/m² -
1788117120 25.56° C 51% 1003.6 hPa 0 mm - 609 W/m² -
1788116816 25.56° C 52% 1003.8 hPa 0 mm - 603 W/m² -
1788116511 25.56° C 52% 1003.8 hPa 0 mm - 603 W/m² -
1788116209 25.56° C 52% 1003.8 hPa 0 mm - 607 W/m² -
1788115905 25.56° C 52% 1003.9 hPa 0 mm - 594 W/m² -
1788115604 25° C 53% 1003.7 hPa 0 mm - 591 W/m² -
1788115300 25° C 52% 1003.7 hPa 0 mm - 587 W/m² -
1788114999 25° C 53% 1003.7 hPa 0 mm - 581 W/m² -
1788114695 25° C 54% 1003.8 hPa 0 mm - 578 W/m² -
1788114396 24.44° C 54% 1003.9 hPa 0 mm - 571 W/m² -
1788114092 24.44° C 55% 1004 hPa 0 mm - 568 W/m² -
1788113787 24.44° C 54% 1003.8 hPa 0 mm - 563 W/m² -
1788113487 24.44° C 54% 1003.9 hPa 0 mm - 554 W/m² -
1788113186 24.44° C 54% 1004.1 hPa 0 mm - 548 W/m² -
1788112887 23.89° C 55% 1004 hPa 0 mm - 541 W/m² -
1788112585 23.89° C 53% 1003.7 hPa 0 mm - 535 W/m² -
1788112281 23.89° C 54% 1003.8 hPa 0 mm - 43 W/m² -

* Rain latest hour (hover to see other rain measurements)
** Current wind speed in m/s (hover to see current wind gust speed)